ARIANE 5 DEB (SYLDA), 52905

Orbit data source: Space-Track

ARIANE 5 DEB (SYLDA), 52905 is space debris in HEO originally from a launch on Wed, 22 Jun 2022 UTC launched from the French Guiana (FRGUI). Debris objects in space refer to the collection of defunct objects orbiting the Earth. Examples of debris include non-operational satellites, rocket bodies, and fragments generated from explosions, collisions, or faulty payload assembly.

Loading next visibility...
Identifier
52905, 2022-067C
Orbit
HEO
Country
Flag of FRFR
Related business
Manufacturer
ADS/Bremen
Mission
Spacecraft
Bus & Motor
SYLDA 5, Unknown motor
Mass
440 kg wet, 440 kg dry
Launch date (UTC)
Icon of a cake. It is the launch day of the satellite!2022-06-22 (4 years ago)
Launch vehicle
Unknown
Launch site
French Guiana (FRGUI)
Object type
Payload
Rocket body
Debris
Shape & HBR
Cyl, 2.8 m
Radar Cross Section
27.391 m², Large (>1 m²)

Expand to show TLE details & history
Last TLE update: 1 week ago

TLE from 1 week ago
0 ARIANE 5 DEB (SYLDA)
1 52905U 22067C   26165.44896005  .00036612  00000-0  61967-2 0  9993
2 52905   5.8788  14.3007 6452420 270.0239  21.3977  3.39442438 40788
Epoch: 2026-06-14T10:46Z
TLE epoch observation values (Epoch: 2026-06-14T10:46:30.148Z)
Latitude
-0.00007°
Longitude
-50.17611°
Altitude
4,515.73 km
Speed
7.201 km/s
True Right ascension
00h 56m 47s
True Declination
0° 00' 00"
Sunlit
Object was in daylight at epoch
Visualization orbit readout
Latitude
Unknown
Longitude
Unknown
Altitude
Unknown
Speed
Unknown
Apparent Right ascension
Unknown
Apparent Declination
Unknown
Sunlit
N/A
Visualization observer readout
Local Sidereal Time
21:33:03
Azimuth
Unknown
Elevation
Unknown
Doppler factor
Unknown
Orbital elements
Apogee altitude
24,399.966 km
Perigee altitude
258.442 km
Semi-major axis
18,707.341 km
Eccentricity
0.64524
Inclination
5.8788°
RAAN
14.3007°
Arg. of periapsis
270.0239°
True anomaly
89.60699°
Mean anomaly
21.3977°
Eccentric anomaly
49.51659°
Mean motion
0.84825 °/min
Orbital period
424.4 mins
BSTAR
0.0061967
Loading maneuver chart data...
Computing Atmospheric mass density...
Loading historical data...
Loading historical data...
Loading historical data...
Loading historical data...
Loading historical data...
Loading historical data...
Loading historical data...
Other satellites on launch #67 in the year 2022 (2022-06-22 UTC)

Documentation

Showing up to 5 results
|